Time,TemperatureF,DewpointF,PressureIn,WindDirection,WindDirectionDegrees,WindSpeedMPH,WindSpeedGustMPH,Humidity,HourlyPrecipIn,Conditions,Clouds,dailyrainin,SoftwareType,DateUTC
2013-02-05 00:02:00,21.0,19.0,-100.00,North,0,2.0,5.0,91,0.00,,,-99.99,,2013-02-05 05:02:00,
2013-02-05 00:11:00,21.0,19.0,-100.00,North,0,2.0,6.0,91,0.00,,,-99.99,,2013-02-05 05:11:00,
2013-02-05 00:22:00,20.0,19.0,-100.00,North,0,4.0,7.0,91,0.00,,,-99.99,,2013-02-05 05:22:00,
2013-02-05 00:32:00,20.0,18.0,-100.00,North,5,3.0,6.0,91,0.00,,,-99.99,,2013-02-05 05:32:00,
2013-02-05 00:42:00,20.0,18.0,-100.00,NNW,345,4.0,6.0,91,0.00,,,-99.99,,2013-02-05 05:42:00,
2013-02-05 00:52:00,20.0,18.0,-100.00,NNW,340,4.0,6.0,91,0.00,,,-99.99,,2013-02-05 05:52:00,
2013-02-05 01:02:00,20.0,18.0,-100.00,North,0,4.0,7.0,91,0.00,,,-99.99,,2013-02-05 06:02:00,
2013-02-05 01:11:00,20.0,18.0,-100.00,North,0,5.0,9.0,91,0.00,,,-99.99,,2013-02-05 06:11:00,
2013-02-05 01:21:00,20.0,18.0,-100.00,North,0,4.0,6.0,91,0.00,,,-99.99,,2013-02-05 06:21:00,
2013-02-05 01:32:00,20.0,18.0,-100.00,North,0,3.0,6.0,91,0.00,,,-99.99,,2013-02-05 06:32:00,
2013-02-05 01:42:00,20.0,18.0,-100.00,North,5,4.0,6.0,91,0.00,,,-99.99,,2013-02-05 06:42:00,
2013-02-05 01:51:00,20.0,17.0,-100.00,North,5,4.0,6.0,91,0.00,,,-99.99,,2013-02-05 06:51:00,
2013-02-05 02:01:00,20.0,17.0,-100.00,North,5,2.0,6.0,91,0.00,,,-99.99,,2013-02-05 07:01:00,
2013-02-05 02:11:00,20.0,17.0,-100.00,NNE,25,2.0,6.0,91,0.00,,,-99.99,,2013-02-05 07:11:00,
2013-02-05 02:22:00,20.0,17.0,-100.00,North,5,3.0,5.0,91,0.00,,,-99.99,,2013-02-05 07:22:00,
2013-02-05 02:32:00,20.0,17.0,-100.00,North,10,4.0,6.0,91,0.00,,,-99.99,,2013-02-05 07:32:00,
2013-02-05 02:42:00,20.0,17.0,-100.00,NNE,25,3.0,7.0,91,0.00,,,-99.99,,2013-02-05 07:42:00,
2013-02-05 02:52:00,19.0,17.0,-100.00,North,0,3.0,7.0,91,0.00,,,-99.99,,2013-02-05 07:52:00,
2013-02-05 03:01:00,19.0,17.0,-100.00,North,0,3.0,6.0,91,0.00,,,-99.99,,2013-02-05 08:01:00,
2013-02-05 03:11:00,19.0,17.0,-100.00,NNE,30,3.0,5.0,91,0.00,,,-99.99,,2013-02-05 08:11:00,
2013-02-05 03:21:00,19.0,17.0,-100.00,NNE,25,2.0,6.0,90,0.00,,,-99.99,,2013-02-05 08:21:00,
2013-02-05 03:32:00,19.0,17.0,-100.00,North,0,2.0,6.0,90,0.00,,,-99.99,,2013-02-05 08:32:00,
2013-02-05 03:42:00,19.0,17.0,-100.00,North,0,2.0,5.0,91,0.00,,,-99.99,,2013-02-05 08:42:00,
2013-02-05 03:52:00,19.0,17.0,-100.00,North,350,3.0,4.0,91,0.00,,,-99.99,,2013-02-05 08:52:00,
2013-02-05 04:02:00,19.0,17.0,-100.00,NNE,15,2.0,4.0,91,0.00,,,-99.99,,2013-02-05 09:02:00,
2013-02-05 04:11:00,19.0,17.0,-100.00,North,10,1.0,3.0,91,0.00,,,-99.99,,2013-02-05 09:11:00,
2013-02-05 04:21:00,19.0,17.0,-100.00,NE,40,2.0,3.0,91,0.00,,,-99.99,,2013-02-05 09:21:00,
2013-02-05 04:32:00,19.0,17.0,-100.00,North,10,1.0,2.0,91,0.00,,,-99.99,,2013-02-05 09:32:00,
2013-02-05 04:42:00,19.0,17.0,-100.00,NNE,30,1.0,1.0,91,0.00,,,-99.99,,2013-02-05 09:42:00,
2013-02-05 04:51:00,19.0,17.0,-100.00,North,0,2.0,3.0,91,0.00,,,-99.99,,2013-02-05 09:51:00,
2013-02-05 05:02:00,19.0,17.0,-100.00,North,0,2.0,4.0,91,0.00,,,-99.99,,2013-02-05 10:02:00,
2013-02-05 05:11:00,19.0,17.0,-100.00,North,355,1.0,3.0,91,0.00,,,-99.99,,2013-02-05 10:11:00,
2013-02-05 05:21:00,19.0,17.0,-100.00,North,355,0.0,2.0,91,0.00,,,-99.99,,2013-02-05 10:21:00,
2013-02-05 05:32:00,19.0,17.0,-100.00,North,5,1.0,3.0,92,0.00,,,-99.99,,2013-02-05 10:32:00,
2013-02-05 05:42:00,19.0,17.0,-100.00,NNE,15,1.0,2.0,92,0.00,,,-99.99,,2013-02-05 10:42:00,
2013-02-05 05:52:00,19.0,17.0,-100.00,North,10,2.0,3.0,92,0.00,,,-99.99,,2013-02-05 10:52:00,
2013-02-05 06:01:00,18.0,16.0,-100.00,NNE,15,2.0,3.0,92,0.00,,,-99.99,,2013-02-05 11:01:00,
2013-02-05 06:11:00,18.0,16.0,-100.00,NNE,15,2.0,3.0,92,0.00,,,-99.99,,2013-02-05 11:11:00,
2013-02-05 06:22:00,18.0,16.0,-100.00,East,85,0.0,2.0,92,0.00,,,-99.99,,2013-02-05 11:22:00,
2013-02-05 06:32:00,18.0,16.0,-100.00,NE,40,0.0,1.0,92,0.00,,,-99.99,,2013-02-05 11:32:00,
2013-02-05 06:42:00,18.0,17.0,-100.00,WNW,285,0.0,0.0,92,0.00,,,-99.99,,2013-02-05 11:42:00,
2013-02-05 06:52:00,18.0,16.0,-100.00,NW,315,0.0,1.0,92,0.00,,,-99.99,,2013-02-05 11:52:00,
2013-02-05 07:02:00,18.0,16.0,-100.00,NNW,330,1.0,1.0,92,0.00,,,-99.99,,2013-02-05 12:02:00,
2013-02-05 07:12:00,18.0,16.0,-100.00,NW,310,1.0,1.0,92,0.00,,,-99.99,,2013-02-05 12:12:00,
2013-02-05 07:22:00,18.0,16.0,-100.00,NNW,330,1.0,1.0,92,0.00,,,-99.99,,2013-02-05 12:22:00,
2013-02-05 07:32:00,18.0,16.0,-100.00,WNW,290,1.0,2.0,92,0.00,,,-99.99,,2013-02-05 12:32:00,
2013-02-05 07:42:00,18.0,16.0,-100.00,WNW,300,1.0,2.0,92,0.00,,,-99.99,,2013-02-05 12:42:00,
2013-02-05 07:52:00,18.0,16.0,-100.00,WNW,295,1.0,2.0,92,0.00,,,-99.99,,2013-02-05 12:52:00,
2013-02-05 08:02:00,18.0,17.0,-100.00,WNW,290,1.0,2.0,92,0.00,,,-99.99,,2013-02-05 13:02:00,
2013-02-05 08:12:00,19.0,17.0,-100.00,West,265,2.0,3.0,92,0.00,,,-99.99,,2013-02-05 13:12:00,
2013-02-05 08:22:00,19.0,17.0,-100.00,WNW,300,1.0,4.0,92,0.00,,,-99.99,,2013-02-05 13:22:00,
2013-02-05 08:32:00,19.0,17.0,-100.00,WNW,285,2.0,3.0,91,0.00,,,-99.99,,2013-02-05 13:32:00,
2013-02-05 08:42:00,19.0,17.0,-100.00,WNW,300,2.0,3.0,91,0.00,,,-99.99,,2013-02-05 13:42:00,
2013-02-05 08:52:00,19.0,17.0,-100.00,WNW,290,1.0,3.0,90,0.00,,,-99.99,,2013-02-05 13:52:00,
2013-02-05 09:01:00,19.0,17.0,-100.00,WNW,295,1.0,2.0,90,0.00,,,-99.99,,2013-02-05 14:01:00,
2013-02-05 09:12:00,19.0,17.0,-100.00,WNW,300,1.0,2.0,89,0.00,,,-99.99,,2013-02-05 14:12:00,
2013-02-05 09:21:00,20.0,17.0,-100.00,WNW,290,2.0,2.0,88,0.00,,,-99.99,,2013-02-05 14:21:00,
2013-02-05 09:32:00,20.0,17.0,-100.00,West,280,2.0,4.0,87,0.00,,,-99.99,,2013-02-05 14:32:00,
2013-02-05 09:42:00,21.0,17.0,-100.00,WNW,290,2.0,4.0,87,0.00,,,-99.99,,2013-02-05 14:42:00,
2013-02-05 09:52:00,21.0,18.0,-100.00,WNW,295,2.0,6.0,86,0.00,,,-99.99,,2013-02-05 14:52:00,
2013-02-05 10:02:00,22.0,18.0,-100.00,West,265,0.0,4.0,85,0.00,,,-99.99,,2013-02-05 15:02:00,
2013-02-05 10:11:00,22.0,18.0,-100.00,West,270,2.0,3.0,84,0.00,,,-99.99,,2013-02-05 15:11:00,
2013-02-05 10:21:00,22.0,17.0,-100.00,South,175,2.0,3.0,83,0.00,,,-99.99,,2013-02-05 15:21:00,
2013-02-05 10:32:00,21.0,17.0,-100.00,SSW,195,3.0,4.0,86,0.00,,,-99.99,,2013-02-05 15:32:00,
2013-02-05 10:42:00,21.0,17.0,-100.00,South,185,3.0,4.0,85,0.00,,,-99.99,,2013-02-05 15:42:00,
2013-02-05 10:52:00,21.0,18.0,-100.00,South,175,2.0,4.0,86,0.00,,,-99.99,,2013-02-05 15:52:00,
2013-02-05 11:01:00,22.0,18.0,-100.00,South,180,4.0,4.0,85,0.00,,,-99.99,,2013-02-05 16:01:00,
2013-02-05 11:11:00,22.0,18.0,-100.00,South,185,6.0,6.0,85,0.00,,,-99.99,,2013-02-05 16:11:00,
2013-02-05 11:22:00,22.0,18.0,-100.00,South,185,7.0,8.0,84,0.00,,,-99.99,,2013-02-05 16:22:00,
2013-02-05 11:32:00,22.0,18.0,-100.00,SSW,195,7.0,9.0,83,0.00,,,-99.99,,2013-02-05 16:32:00,
2013-02-05 11:42:00,22.0,18.0,-100.00,South,170,6.0,9.0,83,0.00,,,-99.99,,2013-02-05 16:42:00,
2013-02-05 11:52:00,23.0,18.0,-100.00,South,180,6.0,8.0,81,0.00,,,-99.99,,2013-02-05 16:52:00,
2013-02-05 12:01:00,23.0,18.0,-100.00,SSE,165,7.0,9.0,81,0.00,,,-99.99,,2013-02-05 17:01:00,
2013-02-05 12:11:00,23.0,18.0,-100.00,South,170,7.0,9.0,81,0.00,,,-99.99,,2013-02-05 17:11:00,
2013-02-05 12:22:00,23.0,18.0,-100.00,South,180,7.0,9.0,81,0.00,,,-99.99,,2013-02-05 17:22:00,
2013-02-05 12:32:00,23.0,18.0,-100.00,South,180,7.0,9.0,80,0.00,,,-99.99,,2013-02-05 17:32:00,
2013-02-05 12:42:00,23.0,18.0,-100.00,South,190,8.0,9.0,80,0.00,,,-99.99,,2013-02-05 17:42:00,
2013-02-05 12:52:00,23.0,18.0,-100.00,South,180,9.0,9.0,79,0.00,,,-99.99,,2013-02-05 17:52:00,
2013-02-05 13:02:00,23.0,17.0,-100.00,SSW,200,9.0,10.0,79,0.00,,,-99.99,,2013-02-05 18:02:00,
2013-02-05 13:11:00,23.0,18.0,-100.00,SSW,195,9.0,11.0,78,0.00,,,-99.99,,2013-02-05 18:11:00,
2013-02-05 13:22:00,24.0,19.0,-100.00,SSW,205,8.0,12.0,79,0.00,,,-99.99,,2013-02-05 18:22:00,
2013-02-05 13:32:00,24.0,18.0,-100.00,SSW,210,7.0,12.0,77,0.00,,,-99.99,,2013-02-05 18:32:00,
2013-02-05 13:42:00,24.0,18.0,-100.00,SSW,210,7.0,10.0,75,0.00,,,-99.99,,2013-02-05 18:42:00,
2013-02-05 13:52:00,24.0,18.0,-100.00,SSW,195,9.0,12.0,78,0.00,,,-99.99,,2013-02-05 18:52:00,
2013-02-05 14:02:00,24.0,18.0,-100.00,SSW,210,7.0,11.0,77,0.00,,,-99.99,,2013-02-05 19:02:00,
2013-02-05 14:11:00,24.0,18.0,-100.00,South,190,10.0,12.0,78,0.00,,,-99.99,,2013-02-05 19:11:00,
2013-02-05 14:22:00,24.0,19.0,-100.00,SSW,195,9.0,14.0,79,0.00,,,-99.99,,2013-02-05 19:22:00,
2013-02-05 14:32:00,25.0,18.0,-100.00,SW,215,10.0,16.0,74,0.00,,,-99.99,,2013-02-05 19:32:00,
2013-02-05 14:42:00,25.0,18.0,-100.00,SW,215,9.0,13.0,74,0.00,,,-99.99,,2013-02-05 19:42:00,
2013-02-05 14:52:00,25.0,19.0,-100.00,SSW,195,11.0,13.0,76,0.00,,,-99.99,,2013-02-05 19:52:00,
2013-02-05 15:02:00,25.0,18.0,-100.00,SSW,200,12.0,15.0,75,0.00,,,-99.99,,2013-02-05 20:02:00,
2013-02-05 15:11:00,25.0,19.0,-100.00,SSW,200,9.0,13.0,77,0.00,,,-99.99,,2013-02-05 20:11:00,
2013-02-05 15:21:00,26.0,19.0,-100.00,SSW,200,9.0,12.0,76,0.00,,,-99.99,,2013-02-05 20:21:00,
2013-02-05 15:32:00,26.0,19.0,-100.00,SSW,210,9.0,13.0,73,0.00,,,-99.99,,2013-02-05 20:32:00,
2013-02-05 15:42:00,26.0,18.0,-100.00,SW,215,9.0,12.0,71,0.00,,,-99.99,,2013-02-05 20:42:00,
2013-02-05 15:52:00,26.0,18.0,-100.00,SSW,210,7.0,11.0,70,0.00,,,-99.99,,2013-02-05 20:52:00,
2013-02-05 16:02:00,26.0,18.0,-100.00,SSW,195,10.0,12.0,71,0.00,,,-99.99,,2013-02-05 21:02:00,
2013-02-05 16:11:00,26.0,18.0,-100.00,SSW,195,11.0,14.0,71,0.00,,,-99.99,,2013-02-05 21:11:00,
2013-02-05 16:22:00,26.0,18.0,-100.00,SSW,195,12.0,15.0,71,0.00,,,-99.99,,2013-02-05 21:22:00,
2013-02-05 16:32:00,26.0,18.0,-100.00,SSW,210,7.0,15.0,71,0.00,,,-99.99,,2013-02-05 21:32:00,
2013-02-05 16:42:00,26.0,19.0,-100.00,SSW,195,9.0,13.0,73,0.00,,,-99.99,,2013-02-05 21:42:00,
2013-02-05 16:52:00,26.0,19.0,-100.00,SSW,205,7.0,10.0,73,0.00,,,-99.99,,2013-02-05 21:52:00,
2013-02-05 17:02:00,26.0,19.0,-100.00,SSW,195,9.0,11.0,73,0.00,,,-99.99,,2013-02-05 22:02:00,
2013-02-05 17:11:00,26.0,19.0,-100.00,SSW,205,9.0,11.0,73,0.00,,,-99.99,,2013-02-05 22:11:00,
2013-02-05 17:22:00,27.0,19.0,-100.00,SSW,200,8.0,12.0,74,0.00,,,-99.99,,2013-02-05 22:22:00,
2013-02-05 17:32:00,27.0,20.0,-100.00,SSW,195,7.0,10.0,74,0.00,,,-99.99,,2013-02-05 22:32:00,
2013-02-05 17:42:00,27.0,20.0,-100.00,South,185,9.0,12.0,75,0.00,,,-99.99,,2013-02-05 22:42:00,
2013-02-05 17:51:00,27.0,20.0,-100.00,SSW,195,9.0,12.0,75,0.00,,,-99.99,,2013-02-05 22:51:00,
2013-02-05 18:02:00,27.0,20.0,-100.00,South,190,7.0,10.0,76,0.00,,,-99.99,,2013-02-05 23:02:00,
2013-02-05 18:11:00,27.0,20.0,-100.00,SSW,210,6.0,9.0,76,0.00,,,-99.99,,2013-02-05 23:11:00,
2013-02-05 18:22:00,27.0,20.0,-100.00,SW,225,7.0,9.0,76,0.00,,,-99.99,,2013-02-05 23:22:00,
2013-02-05 18:32:00,27.0,20.0,-100.00,SW,220,7.0,11.0,76,0.00,,,-99.99,,2013-02-05 23:32:00,
2013-02-05 18:42:00,26.0,22.0,-100.00,SW,220,4.0,7.0,82,2.83,,,-99.99,,2013-02-05 23:42:00,
2013-02-05 18:52:00,26.0,22.0,-100.00,SSW,210,6.0,9.0,88,2.83,,,-99.99,,2013-02-05 23:52:00,
2013-02-05 19:02:00,25.0,23.0,-100.00,SSW,210,7.0,9.0,92,2.24,,,-99.99,,2013-02-06 00:02:00,
2013-02-05 19:12:00,25.0,24.0,-100.00,SSW,210,6.0,7.0,93,1.10,,,-99.99,,2013-02-06 00:12:00,
2013-02-05 19:22:00,26.0,24.0,-100.00,SW,220,6.0,9.0,94,0.55,,,-99.99,,2013-02-06 00:22:00,
2013-02-05 19:32:00,26.0,24.0,-100.00,SW,225,6.0,9.0,94,0.55,,,-99.99,,2013-02-06 00:32:00,
2013-02-05 19:42:00,26.0,24.0,-100.00,SW,220,7.0,11.0,94,0.00,,,-99.99,,2013-02-06 00:42:00,
2013-02-05 19:52:00,26.0,24.0,-100.00,SW,215,7.0,11.0,94,0.00,,,-99.99,,2013-02-06 00:52:00,
2013-02-05 20:02:00,25.0,24.0,-100.00,SW,220,6.0,9.0,93,0.00,,,-99.99,,2013-02-06 01:02:00,
2013-02-05 20:12:00,25.0,23.0,-100.00,SW,225,6.0,10.0,93,0.00,,,-99.99,,2013-02-06 01:12:00,
2013-02-05 20:22:00,25.0,23.0,-100.00,SW,225,5.0,8.0,92,0.00,,,-99.99,,2013-02-06 01:22:00,
2013-02-05 20:32:00,25.0,23.0,-100.00,SSW,200,5.0,8.0,92,0.00,,,-99.99,,2013-02-06 01:32:00,
2013-02-05 20:42:00,25.0,23.0,-100.00,SSW,210,5.0,9.0,92,0.00,,,-99.99,,2013-02-06 01:42:00,
2013-02-05 20:52:00,25.0,23.0,-100.00,SSW,195,7.0,9.0,92,0.00,,,-99.99,,2013-02-06 01:52:00,
2013-02-05 21:02:00,25.0,23.0,-100.00,South,185,8.0,10.0,92,0.00,,,-99.99,,2013-02-06 02:02:00,
2013-02-05 21:11:00,26.0,24.0,-100.00,SSW,200,8.0,11.0,92,0.00,,,-99.99,,2013-02-06 02:11:00,
2013-02-05 21:22:00,25.0,23.0,-100.00,SSW,195,11.0,13.0,92,0.00,,,-99.99,,2013-02-06 02:22:00,
2013-02-05 21:32:00,26.0,24.0,-100.00,SSW,205,9.0,12.0,92,0.00,,,-99.99,,2013-02-06 02:32:00,
2013-02-05 21:42:00,26.0,24.0,-100.00,SSW,205,7.0,12.0,91,0.00,,,-99.99,,2013-02-06 02:42:00,
2013-02-05 21:52:00,26.0,24.0,-100.00,SSW,210,7.0,11.0,91,0.00,,,-99.99,,2013-02-06 02:52:00,
2013-02-05 22:03:00,26.0,24.0,-100.00,SSW,210,6.0,11.0,91,0.00,,,-99.99,,2013-02-06 03:03:00,
2013-02-05 22:12:00,26.0,24.0,-100.00,SSW,210,6.0,9.0,90,0.00,,,-99.99,,2013-02-06 03:12:00,
2013-02-05 22:22:00,27.0,24.0,-100.00,SW,220,6.0,9.0,90,0.00,,,-99.99,,2013-02-06 03:22:00,
2013-02-05 22:32:00,27.0,24.0,-100.00,SW,220,7.0,11.0,90,0.00,,,-99.99,,2013-02-06 03:32:00,
2013-02-05 22:42:00,27.0,24.0,-100.00,SW,220,7.0,12.0,90,0.00,,,-99.99,,2013-02-06 03:42:00,
2013-02-05 22:52:00,27.0,24.0,-100.00,SW,230,8.0,13.0,90,0.00,,,-99.99,,2013-02-06 03:52:00,
2013-02-05 23:02:00,27.0,24.0,-100.00,SW,230,6.0,10.0,90,0.00,,,-99.99,,2013-02-06 04:02:00,
2013-02-05 23:11:00,27.0,25.0,-100.00,SW,235,6.0,10.0,90,0.00,,,-99.99,,2013-02-06 04:11:00,
2013-02-05 23:22:00,27.0,25.0,-100.00,SW,235,5.0,9.0,90,0.00,,,-99.99,,2013-02-06 04:22:00,
2013-02-05 23:32:00,28.0,25.0,-100.00,WSW,255,6.0,11.0,89,0.00,,,-99.99,,2013-02-06 04:32:00,
2013-02-05 23:42:00,28.0,25.0,-100.00,SW,230,6.0,9.0,89,0.00,,,-99.99,,2013-02-06 04:42:00,
2013-02-05 23:52:00,28.0,25.0,-100.00,WSW,240,5.0,9.0,89,0.00,,,-99.99,,2013-02-06 04:52:00,